AEHF-5 (USA 292)

Last updated on Sun Dec 14 2025 00:02:52 GMT+0000 (Coordinated Universal Time)

1 44481U 19051A 25347.15067466 -.00000245 00000+0 00000+0 0 9993 2 44481 1.6762 323.9610 0069657 2.8824 262.5903 1.00271140 23396
UTC large
Height (km)
Speed (km/s)
/
Latitude / Longitude
Inclination (degrees)
Orbital Period (minutes)
Azimuth
Elevation
Range (km)
Doppler Factor

Next 0 passes for location: London (51.5072 / 0.1276)

Sorry there are no passes over London.